sat.trackr.live / text

‹ back to catalog

STARLINK-3992

NORAD 52627 · 2022-052AF

PAYLOAD ACTIVE UNKNOWN

§ Identity

Operator
Country
US
Launch date
2022-05-14
Launch site
AFETR
Launch vehicle
Mass (kg)
RCS (m²)

Purposes: comms

External: N2YO · Heavens-Above · Gunter

§ Orbital elements

Epoch: 2026-09-20T04:47:15.203328Z

Period
93.79 min
Inclination
53.1587°
Eccentricity
0.0001326
Mean motion
15.35410249 rev/d
Perigee alt
458.8 km
Apogee alt
460.6 km
Semi-major
6,837.8 km
B*
-1.9835e-5
RAAN
104.0805°
Arg perigee
75.7842°
Mean anomaly
284.3308°
Rev number
24,052

§ Raw data

STARLINK-39921 52627U 22052AF  26263.19948152 -.00001073  00000+0 -19835-4 0  99932 52627  53.1587 104.0805 0001326  75.7842 284.3308 15.35410249240521

JSON: /api/v1/satellites/52627 · /tle

For live sub-satellite position, see the globe view (requires WebGL).

§ Visibility from observer

Set your observer location to see the next 7 days of passes ≥ 10°. The values pass through the URL so the page stays shareable.

No JS? Fill the form by hand. The geolocation button needs JavaScript.